Regional Weather Roundup
Issued by NWS Upton, NY

Current Version | Previous Version | Graphics & Text | Print | Product List | Glossary Off
Versions: 1 2 3 4 5 6 7 8 9 10 11 12 13 14 15 16 17 18 19 20 21 22 23 24 25 26 27 28 29 30 31 32 33 34 35 36 37 38 39 40 41 42 43 44 45 46 47 48 49 50

000
ASUS41 KOKX 231218
RWROKX

REGIONAL WEATHER ROUNDUP
NATIONAL WEATHER SERVICE NEW YORK NY
800 AM EDT SAT MAY 23 2015

NOTE: "FAIR" INDICATES FEW OR NO CLOUDS BELOW 12,000 FEET WITH NO
SIGNIFICANT WEATHER AND/OR OBSTRUCTIONS TO VISIBILITY.

NYZ071-072-176-178-NJZ106-104-231300-
NEW YORK CITY METRO AREA


CITY           SKY/WX    TMP DP  RH WIND       PRES   REMARKS
CENTRAL PARK   SUNNY     50  27  40 VRB5      30.41R
LAGUARDIA APRT SUNNY     51  29  42 NW10      30.38R
KENNEDY INTL   MOSUNNY   53  26  35 NW12      30.39R
NEWARK/LIBERTY MOSUNNY   52  29  41 NW13      30.39R
BRNX BOT. GARD   N/A     50  30  46 E2        30.40R
TETERBORO      SUNNY     50  28  42 N10       30.38R
$$

NYZ177-179-078>081-231300-
LONG ISLAND NEW YORK

CITY           SKY/WX    TMP DP  RH WIND       PRES   REMARKS
FARMINGDALE    SUNNY     51  28  41 N10       30.37R
ISLIP          MOSUNNY   51  27  39 N16       30.35R
SHIRLEY        SUNNY     51  27  39 N16       30.37R
WESTHAMPTON    SUNNY     51  25  36 N16G28    30.37R
MONTAUK POINT    N/A     51  28  41 NW12G20   30.36R
$$

NYZ052-065-067-231300-
HUDSON VALLEY

CITY           SKY/WX    TMP DP  RH WIND       PRES   REMARKS
WHITE PLAINS   SUNNY     48  29  47 NW13G20   30.36R
NEWBURGH       SUNNY     41  28  60 NW7       30.39R
MONTGOMERY     SUNNY     47  26  44 NW13G18   30.39R
POUGHKEEPSIE   SUNNY     48  23  37 NW10      30.38R
ALBANY         SUNNY     45  25  45 NW9       30.39R
$$

NJZ001-105-106-008-010-013-015-019>022-104-231300-
NEW JERSEY

CITY           SKY/WX    TMP DP  RH WIND       PRES   REMARKS
NEWARK/LIBERTY MOSUNNY   52  29  41 NW13      30.39R
TETERBORO      SUNNY     50  28  42 N10       30.38R
CALDWELL       SUNNY     49  28  44 NW9       30.39R
MORRISTOWN     SUNNY     50  32  50 N6G14     30.41R
SOMERVILLE     SUNNY     50  29  44 NW10G16   30.39R
SUSSEX         SUNNY     47  27  45 N9        30.41R
ANDOVER          N/A     47  27  45 VRB7      30.40R
TRENTON        SUNNY     51  28  41 NW10      30.41R
MILLVILLE      SUNNY     55  34  45 N8        30.42R
ATLANTIC CITY  SUNNY     54  31  41 NW12      30.41R
WRIGHTSTOWN    SUNNY     52  30  43 N12       30.38R
TOMS RIVER     SUNNY    N/A N/A N/A N12       30.39R
BELMAR         SUNNY     52  28  40 NW13      30.39R
$$

PAZ047>061-062-071-231300-
EASTERN PENNSYLVANIA

CITY           SKY/WX    TMP DP  RH WIND       PRES   REMARKS
PHILADELPHIA   MOSUNNY   53  27  36 N10       30.43R
ALLENTOWN      SUNNY     49  27  42 NW7       30.43R
SCRANTON       SUNNY     46  26  45 NW8       30.41R
$$

CTZ002-004>006-009-010-012-RIZ004-006-007-MAZ004-011-015-231300-
SOUTHERN NEW ENGLAND
 IN CT

CITY           SKY/WX    TMP DP  RH WIND       PRES   REMARKS
BRADLEY INTL   MOSUNNY   48  23  37 NW14      30.35R
HARTFORD       SUNNY     48  22  35 W13G22    30.36R
DANBURY        SUNNY     47  23  38 NW8       30.38R
WTRBRY/OXFORD  SUNNY     45  25  45 N12G181   30.37R
BRIDGEPORT     SUNNY     50  27  40 NW12      30.36R
MERIDEN        SUNNY     49  24  37 NW12      30.37R
NEW HAVEN      SUNNY     49  25  39 N10G17    30.37R
CHESTER        FAIR      48  27  43 N7        30.36R
GROTON         SUNNY     50  25  37 NW12      30.34R
WILLIMANTIC    SUNNY     48  23  37 NW10      30.34R

 IN RI

CITY           SKY/WX    TMP DP  RH WIND       PRES   REMARKS
PROVIDENCE     MOSUNNY   48  26  42 NW15G24   30.33R
BLOCK ISLAND   SUNNY     50  28  43 NW12G17   30.33R
WESTERLY       SUNNY     50  26  39 NW13G21   30.34R

 IN MA

CITY           SKY/WX    TMP DP  RH WIND       PRES   REMARKS
BOSTON         SUNNY     47  20  34 NW13G23   30.31R
WORCESTER      SUNNY     43  17  35 NW9       30.30R
WESTFIELD      SUNNY     47  19  33 W13       30.35R
PROVINCETOWN   SUNNY     46  25  42 NW22G30   30.30R
NANTUCKET      SUNNY     51  29  42 NW26G32   30.28R
$$

ANZ330-335-338-340-345-350-353-355-231300-
COASTAL MARINE OBSERVATIONS


STATION/POSITION TIME  SKY/WX   TEMP    WIND        PRES    VSBY  WAVE
                                AIR SEA DIR/SP/G                  HT/PER
                 (UTC)          (F)     (DEG/KT/KT) (MB)    (MI)  (FT/S)
NY HARB ENTRANCE 1150            51 54  320/ 16/ 19 1028.0          2/ 4
4S FIRE IS       1103               53                N/A           2/ 3
20S FIRE ISLAND  1150            51 54  350/ 16/ 19 1027.9          4/ 5
GREAT SOUTH BAY  1100            51 62  360/ 14/ 17   N/A
23SW MTP         1150            50 52  340/ 19/ 23 1026.6          4/ 4
HUDSON CANYON    NOT AVBL
KINGS POINT      1100            49 53   10/ 10/ 14 1027.3
CENTRAL LI SOUND 1100            48 51  310/ 16/ 17   N/A
EASTERN LI SOUND 1100            49     310/ 16/ 19   N/A
ROBBINS REEF     1100            49     320/ 17/ 20 1027.0
$$


>>>>>>>>>>>>>>>>>>>>>>>>>>>> KEY <<<<<<<<<<<<<<<<<<<<<<<<<<<
>                                                          <
>     SKY/WX - SKY CONDITION/PRESENT WEATHER               <
>     TMP    - TEMPERATURE IN FAHRENHEIT                   <
>     DP     - DEWPOINT IN FAHRENHEIT                      <
>     RH     - RELATIVE HUMIDITY IN PERCENT                <
>     WIND   - DIRECTION AND SPEED IN MPH                  <
>     PRES   - MEAN SEA LEVEL PRESSURE IN INCHES OF HG     <
>     WCI    - WIND CHILL INDEX                            <
>     VSB    - VISIBILITY IN MILES                         <
>     HX     - HEAT INDEX                                  <
>     TC     - TEMPERATURE IN CELSIUS                      <
>     VRB    - VARIABLE WIND DIRECTION                     <
>                                                          <
>>>>>>>>>>>>>>>>>>>>>>>>>>>> KEY <<<<<<<<<<<<<<<<<<<<<<<<<<<





USA.gov is the U.S. government's official web portal to all federal, state and local government web resources and services.